Location: Breton
(53.1167°N, 114.4833°W)
Time: 08:48:30
(UTC+00:00)

Envisat - Visible Passes

Search period start: 04 December 2021 00:00
Search period end: 14 December 2021 00:00
Orbit: 764 x 766 km, 98.2° (Epoch: 03 December)

Date Brightness Start Highest point End Pass type
(mag) Time Alt. Az. Time Alt. Az. Time Alt. Az.
04 Dec 4.3 00:10:44 10° S 00:15:35 45° W 00:20:30 10° NNW visible
04 Dec 4.2 12:12:59 10° NNE 12:17:48 40° E 12:22:35 10° SSE visible
04 Dec 3.5 13:52:09 10° N 13:56:49 37° WNW 14:01:27 10° SW visible
05 Dec 5.9 01:15:28 10° WSW 01:18:25 15° W 01:21:23 10° NW visible
05 Dec 5.3 11:36:42 10° NE 11:40:36 22° E 11:44:28 10° SE visible
05 Dec 2.9 13:15:03 10° N 13:20:07 69° WNW 13:25:10 10° SSW visible
06 Dec 5.2 00:36:41 10° SSW 00:41:05 29° W 00:45:32 10° NNW visible
06 Dec 6.1 11:01:50 10° ENE 11:03:11 11° E 11:04:31 10° E visible
06 Dec 3.4 12:38:09 10° NNE 12:43:14 64° ESE 12:48:17 10° S visible
06 Dec 3.9 14:17:47 10° N 14:21:54 25° WNW 14:26:00 10° WSW visible
06 Dec 3.9 23:58:59 10° S 00:03:59 55° W 00:09:00 10° NNW visible
07 Dec 4.6 12:01:33 10° NNE 12:06:10 33° E 12:10:45 10° SSE visible
07 Dec 3.2 13:40:30 10° N 13:45:20 44° WNW 13:50:08 10° SW visible
08 Dec 5.8 01:03:09 10° SW 01:06:42 19° W 01:10:15 10° NW visible
08 Dec 5.6 11:25:29 10° NE 11:28:53 18° E 11:32:18 10° SE visible
08 Dec 2.9 13:03:27 10° NNE 13:08:35 83° WNW 13:13:39 10° SSW visible
08 Dec 4.4 14:43:35 10° NNW 14:46:54 18° NW 14:50:11 10° W visible
09 Dec 4.8 00:24:48 10° SSW 00:29:26 35° W 00:34:07 10° NNW visible
09 Dec 3.7 12:26:39 10° NNE 12:31:38 52° E 12:36:35 10° S visible
09 Dec 3.7 14:06:04 10° N 14:10:27 30° WNW 14:14:49 10° WSW visible
10 Dec 6.2 01:30:39 10° WSW 01:32:24 12° W 01:34:09 10° WNW visible
10 Dec 4.9 11:50:10 10° NE 11:54:30 28° E 11:58:50 10° SSE visible
10 Dec 3.0 13:28:52 10° N 13:33:49 53° WNW 13:38:45 10° SW visible
11 Dec 5.6 00:51:01 10° SW 00:54:59 23° W 00:58:59 10° NW visible
11 Dec 5.8 11:14:23 10° NE 11:17:10 15° E 11:19:57 10° ESE visible
11 Dec 3.0 12:51:53 10° NNE 12:57:01 82° ESE 13:02:06 10° SSW visible
11 Dec 4.2 14:31:47 10° N 14:35:29 21° NW 14:39:10 10° WSW visible
12 Dec 4.4 00:12:58 10° S 00:17:47 43° W 00:22:39 10° NNW visible
12 Dec 4.1 12:15:09 10° NNE 12:20:01 43° E 12:24:51 10° S visible
12 Dec 3.5 13:54:22 10° N 13:58:58 35° WNW 14:03:34 10° SW visible
13 Dec 6.0 01:17:54 10° WSW 01:20:39 14° W 01:23:24 10° NW visible
13 Dec 5.2 11:38:48 10° NE 11:42:49 23° E 11:46:49 10° SE visible
13 Dec 2.9 13:17:14 10° N 13:22:18 65° WNW 13:27:19 10° SSW visible
13 Dec 4.6 14:57:46 10° NNW 15:00:25 14° NW 15:03:05 10° W visible
